User: anonymous
Location: Unspecified
(0.0000°N, 0.0000°E)
Time: 15:35:35
(UTC+02:00)
Language:

ATLAS V CENTAUR R/B - Orbit

View from above orbital plane
View from above orbital plane
View from above satellite
View from above satellite

Ground track
Ground track

The orbit data is extracted from the following two-line orbital elements,

1 27500U 02038B   14105.57683537  .00018766  00000-0  28628-2 0  8706
2 27500 018.2290 300.2970 6995646 283.9107 345.9085 02.66021590 93146
Epoch (UTC): 15 April 2014 13:50:38
Eccentricity: 0.6995646
inclination: 18.2290°
perigee height: 232 km
apogee height: 31015 km
right ascension of ascending node: 300.2970°
argument of perigee: 283.9107°
revolutions per day: 2.66021590
mean anomaly at epoch: 345.9085°
orbit number at epoch: 9314

The dashed part of the orbit path shows where the satellite is in the earth's shadow,  

DLR